Time,TemperatureF,DewpointF,PressureIn,WindDirection,WindDirectionDegrees,WindSpeedMPH,WindSpeedGustMPH,Humidity,HourlyPrecipIn,Conditions,Clouds,dailyrainin,SoftwareType,DateUTC
2013-01-07 00:14:00,39.5,39.0,30.27,NE,37,0.0,0.0,96,0.00,,,0.00,weatherlink.com 1.10,2013-01-07 06:14:00,
2013-01-07 00:29:00,39.3,39.0,30.27,NE,37,0.0,0.0,97,0.00,,,0.00,weatherlink.com 1.10,2013-01-07 06:29:00,
2013-01-07 00:45:00,39.2,39.0,30.26,North,352,0.0,2.0,97,0.00,,,0.00,weatherlink.com 1.10,2013-01-07 06:45:00,
2013-01-07 01:00:00,38.8,38.0,30.25,NNE,13,0.0,1.0,97,0.00,,,0.00,weatherlink.com 1.10,2013-01-07 07:00:00,
2013-01-07 01:15:00,38.2,38.0,30.25,NNE,14,0.0,0.0,97,0.00,,,0.00,weatherlink.com 1.10,2013-01-07 07:15:00,
2013-01-07 01:30:00,37.5,37.0,30.26,NNE,14,0.0,0.0,97,0.00,,,0.00,weatherlink.com 1.10,2013-01-07 07:30:00,
2013-01-07 01:45:00,37.0,36.0,30.25,NNE,14,0.0,0.0,97,0.00,,,0.00,weatherlink.com 1.10,2013-01-07 07:45:00,
2013-01-07 02:00:00,37.1,36.0,30.25,NNE,13,0.0,1.0,97,0.00,,,0.00,weatherlink.com 1.10,2013-01-07 08:00:00,
2013-01-07 02:15:00,36.8,36.0,30.25,NNE,13,0.0,0.0,97,0.00,,,0.00,weatherlink.com 1.10,2013-01-07 08:15:00,
2013-01-07 02:30:00,36.4,36.0,30.25,NNE,13,0.0,0.0,97,0.00,,,0.00,weatherlink.com 1.10,2013-01-07 08:30:00,
2013-01-07 02:45:00,36.7,36.0,30.24,North,353,0.0,1.0,97,0.00,,,0.00,weatherlink.com 1.10,2013-01-07 08:45:00,
2013-01-07 03:00:00,37.5,37.0,30.25,NNW,338,0.0,2.0,97,0.00,,,0.00,weatherlink.com 1.10,2013-01-07 09:00:00,
2013-01-07 03:15:00,37.3,37.0,30.25,NNE,20,0.0,0.0,97,0.00,,,0.00,weatherlink.com 1.10,2013-01-07 09:15:00,
2013-01-07 03:30:00,36.6,36.0,30.25,NNE,13,0.0,0.0,97,0.00,,,0.00,weatherlink.com 1.10,2013-01-07 09:30:00,
2013-01-07 03:45:00,36.1,35.0,30.26,North,11,0.0,0.0,97,0.00,,,0.00,weatherlink.com 1.10,2013-01-07 09:45:00,
2013-01-07 04:00:00,35.6,35.0,30.26,North,11,0.0,0.0,97,0.00,,,0.00,weatherlink.com 1.10,2013-01-07 10:00:00,
2013-01-07 04:15:00,35.1,34.0,30.26,NNE,16,0.0,0.0,97,0.00,,,0.00,weatherlink.com 1.10,2013-01-07 10:15:00,
2013-01-07 04:30:00,34.7,34.0,30.26,NNE,16,0.0,0.0,97,0.00,,,0.00,weatherlink.com 1.10,2013-01-07 10:30:00,
2013-01-07 04:45:00,33.7,33.0,30.26,NNE,16,0.0,0.0,97,0.00,,,0.00,weatherlink.com 1.10,2013-01-07 10:45:00,
2013-01-07 05:00:00,33.5,33.0,30.26,NNE,18,0.0,0.0,97,0.00,,,0.00,weatherlink.com 1.10,2013-01-07 11:00:00,
2013-01-07 05:15:00,33.2,33.0,30.26,NNE,18,0.0,0.0,97,0.00,,,0.00,weatherlink.com 1.10,2013-01-07 11:15:00,
2013-01-07 05:30:00,33.0,32.0,30.26,NNE,16,0.0,0.0,97,0.00,,,0.00,weatherlink.com 1.10,2013-01-07 11:30:00,
2013-01-07 05:46:00,32.6,32.0,30.27,NNE,16,0.0,0.0,97,0.00,,,0.00,weatherlink.com 1.10,2013-01-07 11:46:00,
2013-01-07 06:00:00,33.5,33.0,30.27,North,1,0.0,0.0,97,0.00,,,0.00,weatherlink.com 1.10,2013-01-07 12:00:00,
2013-01-07 06:15:00,33.9,33.0,30.27,NNE,23,0.0,2.0,97,0.00,,,0.00,weatherlink.com 1.10,2013-01-07 12:15:00,
2013-01-07 06:30:00,34.4,34.0,30.27,NNE,18,1.0,2.0,97,0.00,,,0.00,weatherlink.com 1.10,2013-01-07 12:30:00,
2013-01-07 06:45:00,34.8,34.0,30.27,NNW,338,0.0,3.0,97,0.00,,,0.00,weatherlink.com 1.10,2013-01-07 12:45:00,
2013-01-07 07:00:00,34.8,34.0,30.27,NW,325,1.0,1.0,97,0.00,,,0.00,weatherlink.com 1.10,2013-01-07 13:00:00,
2013-01-07 07:15:00,35.0,34.0,30.28,NNE,18,0.0,1.0,97,0.00,,,0.00,weatherlink.com 1.10,2013-01-07 13:15:00,
2013-01-07 07:30:00,35.5,35.0,30.28,NW,315,0.0,0.0,97,0.00,,,0.00,weatherlink.com 1.10,2013-01-07 13:30:00,
2013-01-07 07:45:00,35.9,35.0,30.29,NNE,18,0.0,1.0,97,0.00,,,0.00,weatherlink.com 1.10,2013-01-07 13:45:00,
2013-01-07 08:00:00,37.7,37.0,30.29,NNW,344,1.0,2.0,97,0.00,,,0.00,weatherlink.com 1.10,2013-01-07 14:00:00,
2013-01-07 08:15:00,39.5,39.0,30.30,North,1,0.0,3.0,96,0.00,,,0.00,weatherlink.com 1.10,2013-01-07 14:15:00,
2013-01-07 08:30:00,41.5,39.0,30.31,NNW,340,1.0,5.0,90,0.00,,,0.00,weatherlink.com 1.10,2013-01-07 14:30:00,
2013-01-07 08:45:00,44.2,40.0,30.31,NW,320,2.0,5.0,84,0.00,,,0.00,weatherlink.com 1.10,2013-01-07 14:45:00,
2013-01-07 09:01:00,45.9,39.0,30.31,NNW,333,3.0,9.0,78,0.00,,,0.00,weatherlink.com 1.10,2013-01-07 15:01:00,
2013-01-07 09:16:00,46.6,39.0,30.32,SSE,159,2.0,10.0,75,0.00,,,0.00,weatherlink.com 1.10,2013-01-07 15:16:00,
2013-01-07 09:31:00,47.7,39.0,30.32,East,99,4.0,9.0,73,0.00,,,0.00,weatherlink.com 1.10,2013-01-07 15:31:00,
2013-01-07 09:46:00,47.7,40.0,30.32,NE,41,3.0,9.0,74,0.00,,,0.00,weatherlink.com 1.10,2013-01-07 15:46:00,
2013-01-07 10:01:00,47.9,40.0,30.32,ESE,117,3.0,11.0,73,0.00,,,0.00,weatherlink.com 1.10,2013-01-07 16:01:00,
2013-01-07 10:16:00,49.5,40.0,30.32,NE,43,6.0,8.0,71,0.00,,,0.00,weatherlink.com 1.10,2013-01-07 16:16:00,
2013-01-07 10:31:00,50.6,40.0,30.31,NE,39,5.0,9.0,67,0.00,,,0.00,weatherlink.com 1.10,2013-01-07 16:31:00,
2013-01-07 10:46:00,51.2,39.0,30.30,NE,53,3.0,11.0,64,0.00,,,0.00,weatherlink.com 1.10,2013-01-07 16:46:00,
2013-01-07 11:01:00,52.5,39.0,30.30,SE,136,7.0,11.0,61,0.00,,,0.00,weatherlink.com 1.10,2013-01-07 17:01:00,
2013-01-07 11:16:00,52.9,39.0,30.29,South,173,4.0,11.0,59,0.00,,,0.00,weatherlink.com 1.10,2013-01-07 17:16:00,
2013-01-07 11:31:00,53.6,38.0,30.28,East,98,2.0,9.0,56,0.00,,,0.00,weatherlink.com 1.10,2013-01-07 17:31:00,
2013-01-07 11:46:00,54.0,38.0,30.27,NW,319,2.0,11.0,56,0.00,,,0.00,weatherlink.com 1.10,2013-01-07 17:46:00,
2013-01-07 12:01:00,54.7,39.0,30.26,WNW,295,2.0,6.0,55,0.00,,,0.00,weatherlink.com 1.10,2013-01-07 18:01:00,
2013-01-07 12:16:00,55.3,38.0,30.25,NNW,333,2.0,10.0,53,0.00,,,0.00,weatherlink.com 1.10,2013-01-07 18:16:00,
2013-01-07 12:31:00,55.9,38.0,30.24,ESE,121,6.0,7.0,52,0.00,,,0.00,weatherlink.com 1.10,2013-01-07 18:31:00,
2013-01-07 12:46:00,56.8,38.0,30.24,NE,52,4.0,8.0,50,0.00,,,0.00,weatherlink.com 1.10,2013-01-07 18:46:00,
2013-01-07 13:01:00,56.8,38.0,30.24,East,82,7.0,9.0,49,0.00,,,0.00,weatherlink.com 1.10,2013-01-07 19:01:00,
2013-01-07 13:16:00,57.2,37.0,30.24,East,92,7.0,9.0,47,0.00,,,0.00,weatherlink.com 1.10,2013-01-07 19:16:00,
2013-01-07 13:31:00,57.5,38.0,30.23,ENE,60,5.0,9.0,48,0.00,,,0.00,weatherlink.com 1.10,2013-01-07 19:31:00,
2013-01-07 13:46:00,57.9,36.0,30.23,ENE,60,7.0,10.0,45,0.00,,,0.00,weatherlink.com 1.10,2013-01-07 19:46:00,
2013-01-07 14:01:00,58.3,37.0,30.23,ESE,115,1.0,7.0,46,0.00,,,0.00,weatherlink.com 1.10,2013-01-07 20:01:00,
2013-01-07 14:16:00,58.6,38.0,30.23,ENE,67,3.0,8.0,46,0.00,,,0.00,weatherlink.com 1.10,2013-01-07 20:16:00,
2013-01-07 14:31:00,58.6,37.0,30.23,ENE,63,4.0,8.0,44,0.00,,,0.00,weatherlink.com 1.10,2013-01-07 20:31:00,
2013-01-07 14:46:00,58.8,37.0,30.23,ENE,65,1.0,5.0,44,0.00,,,0.00,weatherlink.com 1.10,2013-01-07 20:46:00,
2013-01-07 15:01:00,59.2,37.0,30.23,ENE,70,4.0,7.0,44,0.00,,,0.00,weatherlink.com 1.10,2013-01-07 21:01:00,
2013-01-07 15:16:00,59.0,38.0,30.23,ENE,58,5.0,8.0,45,0.00,,,0.00,weatherlink.com 1.10,2013-01-07 21:16:00,
2013-01-07 15:31:00,59.3,37.0,30.23,ENE,71,5.0,7.0,44,0.00,,,0.00,weatherlink.com 1.10,2013-01-07 21:31:00,
2013-01-07 15:47:00,58.5,38.0,30.23,ESE,114,0.0,6.0,46,0.00,,,0.00,weatherlink.com 1.10,2013-01-07 21:47:00,
2013-01-07 16:01:00,58.9,37.0,30.24,ESE,104,1.0,5.0,45,0.00,,,0.00,weatherlink.com 1.10,2013-01-07 22:01:00,
2013-01-07 16:31:00,57.0,38.0,30.24,ENE,62,3.0,4.0,49,0.00,,,0.00,weatherlink.com 1.10,2013-01-07 22:31:00,
2013-01-07 16:46:00,55.4,38.0,30.24,ESE,106,0.0,3.0,52,0.00,,,0.00,weatherlink.com 1.10,2013-01-07 22:46:00,
2013-01-07 17:02:00,54.1,38.0,30.24,NE,51,0.0,3.0,55,0.00,,,0.00,weatherlink.com 1.10,2013-01-07 23:02:00,
2013-01-07 17:17:00,52.5,38.0,30.24,East,98,0.0,2.0,59,0.00,,,0.00,weatherlink.com 1.10,2013-01-07 23:17:00,
2013-01-07 17:32:00,51.3,39.0,30.25,East,82,0.0,1.0,63,0.00,,,0.00,weatherlink.com 1.10,2013-01-07 23:32:00,
2013-01-07 17:47:00,50.2,39.0,30.24,ENE,69,0.0,0.0,65,0.00,,,0.00,weatherlink.com 1.10,2013-01-07 23:47:00,
2013-01-07 18:02:00,49.8,39.0,30.24,ENE,60,0.0,2.0,67,0.00,,,0.00,weatherlink.com 1.10,2013-01-08 00:02:00,
2013-01-07 18:17:00,48.3,39.0,30.24,ENE,60,0.0,0.0,71,0.00,,,0.00,weatherlink.com 1.10,2013-01-08 00:17:00,
2013-01-07 18:32:00,47.2,39.0,30.25,ENE,60,0.0,0.0,73,0.00,,,0.00,weatherlink.com 1.10,2013-01-08 00:32:00,
2013-01-07 18:47:00,45.5,39.0,30.25,ENE,60,0.0,0.0,78,0.00,,,0.00,weatherlink.com 1.10,2013-01-08 00:47:00,
2013-01-07 19:02:00,44.1,39.0,30.25,ENE,61,0.0,0.0,81,0.00,,,0.00,weatherlink.com 1.10,2013-01-08 01:02:00,
2013-01-07 19:17:00,43.5,38.0,30.25,ENE,60,0.0,0.0,82,0.00,,,0.00,weatherlink.com 1.10,2013-01-08 01:17:00,
2013-01-07 19:32:00,43.5,38.0,30.25,ENE,60,0.0,0.0,81,0.00,,,0.00,weatherlink.com 1.10,2013-01-08 01:32:00,
2013-01-07 19:47:00,44.3,39.0,30.25,NNE,20,0.0,1.0,81,0.00,,,0.00,weatherlink.com 1.10,2013-01-08 01:47:00,
2013-01-07 20:02:00,45.8,39.0,30.25,ENE,63,0.0,2.0,76,0.00,,,0.00,weatherlink.com 1.10,2013-01-08 02:02:00,
2013-01-07 20:17:00,47.0,39.0,30.25,ENE,65,0.0,2.0,73,0.00,,,0.00,weatherlink.com 1.10,2013-01-08 02:17:00,
2013-01-07 20:32:00,47.8,39.0,30.25,ENE,63,0.0,3.0,71,0.00,,,0.00,weatherlink.com 1.10,2013-01-08 02:32:00,
2013-01-07 20:47:00,47.9,39.0,30.25,ENE,58,0.0,4.0,71,0.00,,,0.00,weatherlink.com 1.10,2013-01-08 02:47:00,
2013-01-07 21:02:00,47.7,39.0,30.26,North,359,0.0,3.0,72,0.00,,,0.00,weatherlink.com 1.10,2013-01-08 03:02:00,
2013-01-07 21:17:00,47.2,39.0,30.26,NNE,23,0.0,2.0,73,0.00,,,0.00,weatherlink.com 1.10,2013-01-08 03:17:00,
2013-01-07 21:32:00,47.0,39.0,30.26,NE,51,1.0,3.0,74,0.00,,,0.00,weatherlink.com 1.10,2013-01-08 03:32:00,
2013-01-07 21:47:00,46.5,39.0,30.26,NE,50,0.0,1.0,75,0.00,,,0.00,weatherlink.com 1.10,2013-01-08 03:47:00,
2013-01-07 22:02:00,45.3,39.0,30.25,NE,39,0.0,1.0,78,0.00,,,0.00,weatherlink.com 1.10,2013-01-08 04:02:00,
2013-01-07 22:17:00,45.1,39.0,30.24,NNE,23,1.0,3.0,79,0.00,,,0.00,weatherlink.com 1.10,2013-01-08 04:17:00,
2013-01-07 22:32:00,45.2,39.0,30.23,East,91,0.0,1.0,79,0.00,,,0.00,weatherlink.com 1.10,2013-01-08 04:32:00,
2013-01-07 22:47:00,45.4,39.0,30.23,East,82,2.0,2.0,78,0.00,,,0.00,weatherlink.com 1.10,2013-01-08 04:47:00,
2013-01-07 23:02:00,45.8,39.0,30.23,NE,43,2.0,3.0,78,0.00,,,0.00,weatherlink.com 1.10,2013-01-08 05:02:00,
2013-01-07 23:17:00,46.4,40.0,30.22,ESE,108,2.0,5.0,77,0.00,,,0.00,weatherlink.com 1.10,2013-01-08 05:17:00,
2013-01-07 23:32:00,46.7,40.0,30.23,NE,51,0.0,5.0,77,0.00,,,0.00,weatherlink.com 1.10,2013-01-08 05:32:00,
2013-01-07 23:47:00,46.8,40.0,30.23,ENE,60,5.0,6.0,77,0.00,,,0.00,weatherlink.com 1.10,2013-01-08 05:47:00,